Location: Baggett Branch
(32.6074°N, 97.0167°W)
Time: 11:07:05
(UTC+00:00)

IGS 5A - Pass Details

Date: 10 February 2026
Orbit: 551 x 554 km, 97.4° (Epoch: 8 January)

Event Time Altitude Azimuth Distance (km) Brightness Sun altitude
Rises 12:26:36 0° 4° (N) 2,731 6.8 -10.9°
Reaches altitude 10° 12:28:46 10° 360° (N) 1,833 5.9 -10.4°
Maximum altitude 12:32:36 50° 284° (WNW) 710 3.5 -9.6°
Drops below altitude 10° 12:36:25 10° 209° (SSW) 1,822 5.8 -8.8°
Sets 12:38:34 0° 204° (SSW) 2,712 6.7 -8.4°
